Wind_Speed
14 13 13 13 13 12 12 11 11 10 10 11 11 11 12 12 11 12 12 12 12 13 13 13 14 14 14 14 14 15 15 14 13 12 12 11 10 10 9 9 9 9 10 10
15 14 13 13 14 13 12 12 11 11 11 10 10 10 11 12 12 13 13 13 12 12 12 13 13 13 14 14 15 15 16 15 15 14 13 12 11 11 11 11 11 11 11 11
15 15 15 14 14 14 13 12 12 12 11 12 12 11 11 12 13 13 13 13 12 12 12 13 13 14 14 14 15 15 15 15 15 15 15 14 13 13 12 12 12 12 12 13
16 16 17 15 15 15 14 14 13 13 13 13 12 12 12 13 13 14 14 14 13 13 14 14 14 15 15 15 16 16 16 17 17 16 16 16 15 14 14 14 14 14 14 14
18 18 17 16 15 15 16 15 14 14 13 14 13 14 13 13 14 14 14 14 15 15 15 15 15 15 15 16 16 16 16 17 17 17 17 16 16 16 16 16 16 16 16 16
20 19 18 17 15 16 16 15 15 15 14 14 15 15 14 14 15 15 15 14 15 15 16 16 16 16 16 17 17 17 18 18 18 18 18 18 18 17 17 17 17 17 17 17
20 20 19 18 17 17 16 15 15 16 15 16 15 15 16 16 16 16 16 16 16 16 16 17 17 17 18 18 19 19 19 19 19 19 19 19 19 19 19 19 19 19 19 19
22 21 21 19 19 18 17 17 17 16 17 16 16 16 17 17 17 18 18 17 17 17 17 18 19 19 19 20 20 21 20 20 20 21 21 21 21 21 21 21 20 21 21 21
23 23 22 21 21 20 19 18 18 18 18 18 17 17 17 18 18 18 18 18 18 18 18 19 19 19 20 21 21 21 21 22 22 22 22 22 22 22 23 22 22 22 23 23
24 23 23 22 21 21 20 20 20 20 20 19 19 19 19 18 19 19 19 19 19 19 19 20 20 20 20 21 21 22 22 22 22 23 23 24 24 24 24 23 24 24 24 24
26 25 24 23 23 22 22 21 21 21 21 20 20 19 19 19 19 20 20 20 20 20 20 21 21 22 22 22 22 22 23 23 23 24 24 25 25 25 25 25 25 26 26 26
26 26 26 25 24 24 24 22 22 22 22 21 21 20 20 20 20 21 21 21 21 22 22 22 22 23 23 23 23 24 24 24 25 25 26 26 27 27 27 27 28 28 28 28
28 27 27 26 26 26 25 24 24 23 23 22 22 22 22 22 22 22 22 22 22 22 23 23 23 23 24 25 25 25 25 26 26 26 27 27 28 28 29 29 30 30 29 29
29 28 28 27 27 27 27 26 25 25 25 24 24 23 23 23 23 23 23 23 23 23 23 24 24 24 25 26 27 27 27 28 27 28 28 29 29 30 30 30 30 30 30 30
32 31 29 29 29 29 28 27 26 26 26 26 26 26 25 25 25 24 24 25 24 24 25 25 25 25 26 27 27 28 28 28 28 29 29 30 30 30 31 31 31 31 31 31
32 32 31 31 30 29 29 28 28 28 27 28 28 28 27 27 26 26 26 26 26 26 26 26 26 27 27 28 28 28 29 29 29 29 30 30 31 32 32 32 32 32 33 33
34 33 32 32 31 31 30 29 30 30 30 29 30 30 29 29 28 28 27 28 28 28 28 28 28 29 29 29 29 30 30 30 30 31 31 31 31 32 32 33 33 33 34 35
34 34 33 32 32 32 32 32 31 31 31 31 31 30 30 30 30 30 29 29 29 29 29 29 29 30 30 29 30 31 32 32 32 32 33 33 33 34 34 35 35 35 36 36
34 34 34 34 34 34 34 33 33 33 33 33 32 32 32 31 31 30 31 31 31 31 31 31 31 31 31 31 31 32 33 33 34 34 35 35 35 35 36 36 36 36 37 37
35 35 35 35 35 35 35 35 34 34 34 34 33 33 33 32 32 32 32 32 32 31 32 32 32 32 32 32 32 33 34 35 36 36 36 35 36 36 36 36 37 37 37 37
34 34 34 35 35 36 36 36 35 35 35 35 35 34 34 34 34 33 33 33 33 33 33 33 33 33 33 34 34 35 35 36 36 36 36 36 36 36 36 36 37 37 37 38
34 34 35 35 35 35 35 36 36 36 35 35 35 35 35 35 35 34 34 34 34 35 35 35 35 35 35 36 36 36 36 37 37 37 37 37 37 37 37 37 38 38 38 39
34 35 35 36 36 36 36 35 35 35 35 35 35 35 35 35 35 35 35 35 35 36 36 36 37 37 37 37 37 37 37 37 38 38 38 38 39 39 39 39 39 39 39 40
34 35 36 36 36 36 36 36 36 35 35 35 35 35 35 35 35 35 36 36 36 36 36 36 37 37 38 38 38 38 38 38 39 39 39 39 40 40 40 40 40 40 41 42
33 34 35 35 35 35 36 36 36 35 35 35 34 34 34 35 35 35 35 36 36 36 37 37 38 38 39 39 40 40 40 40 40 40 40 41 41 41 42 42 42 42 43 43
32 33 33 34 34 34 34 34 35 34 34 34 34 35 35 35 35 36 36 37 37 37 37 38 39 39 40 40 40 41 41 41 41 41 41 41 42 42 42 43 43 44 44 44
32 33 33 34 34 34 35 34 34 34 34 34 34 35 35 35 36 36 36 37 37 38 38 39 40 40 40 40 40 40 41 41 41 41 42 42 42 43 43 43 43 44 44 44
Wind_Direction
232 232 232 232 232 232 234 236 234 229 232 234 237 235 234 233 233 233 232 231 231 232 235 236 237 237 238 240 240 238 239 241 245 250 252 254 257 259 262 269 274 277 277 281
234 233 234 234 233 234 236 236 237 236 234 234 235 235 233 231 231 233 233 231 232 234 237 238 237 238 240 243 244 241 241 242 245 249 253 256 259 262 264 269 274 278 279 282
237 238 238 237 236 239 240 240 242 238 234 237 238 238 235 230 228 230 233 233 235 237 241 241 239 240 243 246 246 246 246 246 248 251 254 258 262 265 268 270 273 275 279 281
237 239 242 241 238 239 240 242 242 239 235 238 238 237 238 235 233 233 234 235 237 239 242 242 242 242 244 245 246 248 250 249 250 251 254 258 261 266 269 272 273 274 277 280
237 240 242 240 239 240 242 242 242 240 237 236 239 240 241 240 238 238 238 238 241 243 243 243 243 244 245 247 248 249 250 250 251 252 253 257 261 264 268 271 273 275 276 279
237 240 243 240 240 242 244 242 238 237 238 238 240 240 241 242 240 241 242 243 244 246 245 245 246 246 246 248 249 250 251 252 253 255 256 258 262 265 269 271 273 276 277 278
238 241 242 241 241 242 243 242 243 243 241 240 241 242 243 244 244 243 244 246 248 250 249 249 248 248 249 250 250 250 251 253 255 257 258 260 263 267 270 271 273 276 278 279
240 241 242 241 240 241 244 247 246 245 244 243 244 246 247 247 246 244 245 247 249 251 253 253 251 251 252 252 251 251 252 254 257 259 261 263 265 268 270 271 273 276 277 279
242 243 244 243 243 243 244 245 246 246 246 247 249 249 249 249 248 247 247 248 249 251 253 254 255 255 254 253 253 253 255 256 258 261 262 264 267 270 272 272 274 276 278 280
241 242 242 243 243 243 243 244 245 246 247 249 251 251 251 251 252 251 250 248 248 250 253 254 256 256 255 255 255 255 256 258 260 263 264 265 268 271 272 273 275 277 277 279
240 240 241 242 242 242 241 242 245 246 249 251 253 252 251 253 252 252 251 251 250 251 253 255 256 255 255 255 255 256 257 258 261 263 266 266 269 271 274 275 276 279 279 280
241 241 242 242 241 240 241 242 244 247 249 251 252 252 253 253 253 254 254 254 254 253 254 256 257 257 256 256 256 257 258 260 262 264 266 268 269 271 274 277 279 279 280 281
240 240 242 242 242 243 243 244 245 247 249 252 254 253 254 255 255 256 256 256 256 255 255 257 259 258 257 257 256 257 258 259 261 263 266 269 270 272 274 276 279 280 280 281
240 241 242 242 242 243 244 246 247 248 250 252 254 254 255 256 257 257 257 257 257 256 256 258 260 259 258 257 258 258 259 260 262 265 267 269 271 273 275 278 280 280 281 283
241 242 243 243 243 244 246 248 249 250 251 252 253 255 255 256 257 258 259 259 259 259 259 260 261 260 260 259 260 261 261 262 264 267 269 271 272 274 277 279 281 282 283 284
242 242 243 244 244 245 247 248 250 250 251 252 254 256 256 256 257 258 259 260 260 260 260 261 261 261 261 262 262 263 264 265 267 269 271 273 275 276 278 280 282 283 284 285
243 243 243 244 245 246 247 248 250 251 252 253 255 256 256 257 258 259 260 261 261 261 261 261 262 262 263 263 263 263 265 266 268 270 272 274 276 277 279 281 282 284 286 287
242 243 244 244 245 247 248 249 251 252 253 254 255 256 257 256 257 258 260 261 261 262 262 262 263 263 263 263 265 265 265 266 268 270 272 274 275 277 279 282 283 285 286 286
244 243 244 245 246 248 250 250 251 251 252 252 253 254 256 257 257 258 259 259 260 261 262 263 264 265 265 265 266 266 267 268 269 271 272 274 275 277 279 282 284 285 285 285
243 244 244 245 247 248 249 250 250 251 251 252 252 253 256 258 258 258 259 259 260 261 262 263 264 265 266 266 266 267 268 270 272 272 273 274 277 278 279 281 283 284 285 286
244 245 246 246 247 249 250 250 250 250 251 253 253 254 256 258 259 259 260 260 260 261 262 263 264 265 266 266 268 269 271 273 273 274 274 275 276 278 280 281 282 283 284 286
245 246 246 246 247 248 249 250 251 251 252 253 254 255 257 258 258 259 260 260 261 263 263 265 266 267 267 267 268 269 271 272 273 274 274 275 276 277 279 281 282 283 284 285
245 245 246 247 247 248 248 250 251 251 252 253 254 255 257 258 258 259 260 260 262 263 265 266 267 267 267 268 269 269 271 272 273 274 275 275 276 277 278 280 282 283 284 286
245 245 245 246 247 247 248 249 251 252 253 253 254 255 257 258 259 261 262 262 263 263 264 265 267 268 268 269 269 269 270 272 273 274 275 275 276 277 279 281 283 284 285 286
245 245 245 246 247 248 249 251 252 253 253 253 254 256 258 259 260 261 262 263 263 264 265 266 267 268 269 269 269 269 270 272 272 273 275 276 277 278 279 281 283 284 285 286
245 245 245 246 247 249 250 252 253 252 252 253 255 257 259 260 262 263 264 264 265 265 266 267 267 269 270 270 269 269 270 271 272 272 274 276 277 278 280 281 283 285 285 286
245 246 247 247 248 249 250 252 252 252 253 255 256 258 260 262 263 264 265 266 267 267 267 268 269 269 270 270 270 269 270 271 272 273 275 276 277 279 280 281 283 284 285 286
Height
5833 5834 5836 5837 5838 5840 5841 5843 5844 5845 5846 5847 5848 5849 5851 5852 5853 5855 5856 5858 5859 5861 5863 5864 5865 5867 5868 5870 5871 5872 5874 5874 5875 5876 5876 5877 5877 5877 5877 5876 5876 5875 5875 5874
5830 5831 5832 5834 5835 5836 5838 5839 5841 5842 5843 5844 5845 5846 5848 5849 5850 5852 5853 5855 5857 5858 5860 5861 5862 5864 5865 5866 5868 5869 5870 5871 5872 5873 5873 5874 5874 5874 5873 5873 5873 5872 5872 5871
5827 5828 5829 5831 5832 5833 5835 5836 5838 5839 5841 5841 5842 5843 5844 5846 5847 5849 5850 5852 5854 5855 5857 5858 5859 5861 5862 5863 5864 5865 5867 5868 5868 5869 5870 5870 5870 5870 5870 5870 5869 5869 5868 5868
5822 5824 5825 5829 5828 5829 5831 5832 5834 5835 5836 5838 5839 5840 5841 5842 5844 5846 5847 5849 5850 5852 5853 5855 5856 5857 5858 5859 5860 5862 5863 5864 5864 5865 5865 5866 5866 5866 5866 5866 5866 5865 5865 5864
5818 5819 5821 5824 5825 5825 5827 5828 5830 5831 5832 5834 5835 5836 5838 5839 5840 5842 5844 5845 5847 5848 5849 5850 5852 5853 5854 5855 5856 5857 5858 5859 5860 5861 5861 5862 5862 5862 5862 5862 5861 5861 5860 5859
5813 5815 5817 5820 5820 5821 5823 5824 5826 5826 5828 5829 5831 5833 5835 5835 5836 5838 5839 5841 5842 5843 5845 5846 5847 5849 5850 5851 5852 5853 5854 5855 5855 5856 5856 5857 5857 5857 5857 5857 5857 5856 5855 5854
5807 5809 5812 5814 5815 5817 5820 5821 5821 5822 5824 5825 5827 5829 5830 5831 5832 5834 5835 5836 5838 5839 5840 5841 5843 5844 5845 5846 5847 5848 5849 5850 5851 5851 5851 5852 5852 5852 5852 5852 5851 5851 5850 5849
5802 5804 5809 5809 5810 5813 5814 5815 5816 5818 5819 5821 5822 5823 5825 5826 5827 5829 5830 5832 5833 5834 5835 5836 5838 5839 5840 5841 5842 5842 5843 5844 5845 5846 5846 5846 5847 5847 5847 5846 5846 5845 5844 5843
5797 5801 5802 5803 5805 5806 5808 5810 5811 5813 5815 5816 5817 5818 5820 5821 5822 5824 5825 5826 5828 5829 5830 5831 5832 5833 5834 5835 5836 5836 5837 5838 5839 5840 5840 5841 5841 5841 5840 5840 5839 5839 5838 5837
5790 5792 5794 5796 5798 5800 5802 5804 5806 5807 5809 5811 5812 5813 5815 5816 5817 5818 5820 5821 5822 5823 5824 5825 5826 5827 5828 5829 5830 5831 5831 5832 5833 5834 5834 5834 5834 5834 5834 5833 5833 5832 5831 5830
5782 5785 5787 5789 5792 5794 5796 5798 5800 5801 5803 5805 5806 5808 5809 5810 5811 5813 5814 5815 5816 5817 5818 5819 5820 5821 5822 5823 5824 5825 5825 5826 5827 5827 5827 5828 5828 5827 5827 5826 5825 5825 5824 5822
5775 5778 5780 5783 5785 5788 5790 5792 5794 5795 5797 5799 5800 5802 5803 5804 5806 5807 5808 5809 5810 5811 5812 5813 5814 5814 5815 5816 5817 5818 5819 5819 5820 5820 5820 5820 5820 5820 5819 5819 5818 5817 5815 5814
5768 5770 5773 5775 5778 5780 5783 5785 5787 5789 5790 5792 5794 5795 5797 5798 5799 5800 5801 5802 5803 5804 5805 5806 5807 5807 5808 5809 5810 5811 5811 5812 5812 5813 5813 5813 5812 5812 5812 5811 5809 5808 5807 5805
5759 5762 5765 5768 5770 5773 5775 5778 5780 5782 5783 5785 5787 5788 5790 5791 5792 5793 5794 5795 5796 5797 5798 5798 5799 5800 5801 5801 5802 5802 5803 5804 5804 5805 5804 5804 5804 5804 5803 5802 5801 5800 5798 5796
5751 5754 5757 5760 5762 5765 5768 5770 5772 5774 5776 5777 5779 5781 5782 5783 5784 5786 5787 5787 5788 5789 5790 5791 5792 5792 5793 5793 5794 5794 5795 5795 5796 5796 5796 5796 5795 5795 5794 5793 5792 5790 5789 5787
5743 5746 5748 5751 5754 5757 5759 5762 5764 5766 5768 5769 5771 5772 5774 5775 5776 5778 5779 5780 5780 5781 5782 5783 5783 5784 5784 5785 5785 5786 5787 5787 5787 5787 5787 5787 5786 5786 5785 5784 5782 5781 5779 5777
5733 5736 5739 5742 5745 5748 5751 5753 5755 5757 5759 5760 5762 5763 5765 5766 5768 5769 5770 5771 5772 5772 5773 5774 5775 5775 5776 5776 5777 5777 5778 5778 5778 5778 5778 5777 5776 5776 5775 5774 5772 5770 5769 5766
5723 5727 5730 5733 5736 5738 5741 5743 5745 5747 5749 5751 5752 5754 5756 5757 5758 5760 5761 5762 5762 5763 5764 5765 5765 5766 5767 5767 5767 5768 5768 5768 5768 5768 5768 5767 5766 5765 5764 5763 5761 5760 5758 5755
5713 5716 5720 5722 5725 5728 5731 5733 5735 5737 5739 5741 5742 5744 5746 5747 5749 5750 5751 5752 5753 5753 5754 5755 5755 5756 5756 5757 5757 5757 5757 5757 5757 5757 5757 5756 5755 5754 5753 5752 5750 5748 5746 5744
5703 5706 5709 5712 5715 5717 5720 5722 5724 5726 5728 5730 5732 5734 5735 5737 5738 5739 5741 5742 5743 5743 5744 5744 5745 5745 5746 5746 5746 5747 5747 5746 5746 5746 5745 5745 5744 5743 5742 5740 5738 5737 5734 5732
5693 5696 5699 5702 5704 5707 5709 5712 5714 5716 5718 5720 5722 5723 5725 5726 5727 5728 5729 5731 5732 5732 5733 5733 5734 5734 5735 5735 5735 5735 5735 5735 5735 5734 5734 5733 5732 5731 5730 5728 5727 5725 5723 5720
5683 5686 5689 5691 5694 5696 5698 5701 5703 5705 5707 5709 5711 5712 5714 5715 5716 5717 5718 5719 5720 5720 5721 5722 5723 5723 5723 5723 5723 5724 5724 5723 5723 5722 5722 5721 5720 5719 5718 5716 5715 5713 5710 5708
5672 5675 5678 5680 5683 5685 5687 5689 5691 5694 5696 5698 5699 5701 5702 5703 5704 5705 5707 5707 5708 5709 5709 5710 5710 5711 5711 5711 5711 5711 5711 5711 5711 5710 5709 5709 5708 5707 5706 5704 5702 5700 5698 5695
5660 5663 5666 5669 5671 5674 5676 5678 5680 5682 5684 5686 5688 5689 5690 5691 5693 5694 5695 5695 5696 5697 5697 5698 5698 5698 5698 5698 5698 5698 5698 5698 5698 5697 5697 5696 5695 5694 5692 5691 5689 5687 5684 5682
5649 5652 5655 5658 5660 5663 5665 5667 5669 5671 5673 5675 5676 5678 5679 5680 5681 5682 5682 5683 5684 5684 5685 5685 5685 5685 5685 5685 5685 5685 5685 5685 5685 5684 5683 5683 5681 5680 5679 5677 5675 5673 5670 5668
5639 5642 5644 5647 5649 5651 5654 5656 5658 5660 5661 5663 5665 5666 5667 5668 5669 5670 5670 5671 5671 5672 5672 5672 5672 5672 5672 5672 5672 5672 5672 5671 5671 5670 5670 5669 5668 5666 5665 5663 5661 5659 5656 5654
5628 5631 5633 5635 5638 5640 5642 5644 5646 5648 5650 5652 5653 5655 5655 5656 5657 5658 5658 5658 5659 5659 5659 5659 5658 5658 5658 5658 5658 5658 5658 5658 5657 5656 5656 5655 5654 5652 5651 5649 5647 5645 5642 5639